Regional Weather Roundup
Issued by NWS

Home | Current Version | Previous Version | Text Only | Print | Product List | Glossary Off
Versions: 1 2 3 4 5 6 7 8 9 10 11 12 13 14 15 16 17 18 19 20 21 22 23 24 25 26 27 28 29 30 31 32 33 34 35 36 37 38 39 40 41 42 43 44 45 46 47 48 49 50

000
ASUS44 KMEG 291600
RWRTN
TENNESSEE HOURLY STATE WEATHER ROUNDUP
NATIONAL WEATHER SERVICE MEMPHIS TN
1100 AM CDT SAT AUG 29 2015

TNZ002-004-019-021-049-052-054-088>092-291700-
WEST TENNESSEE

CITY           SKY/WX    TMP DP  RH WIND       PRES   REMARKS
MEMPHIS INTL   MOSUNNY   86  70  58 SW7       30.09S HX  90
NWS MEMPHIS      N/A     85 N/A N/A MISG        N/A
JACKSON        SUNNY     83  72  69 VRB6      30.11R
DYERSBURG      MOSUNNY  N/A N/A N/A MISG        N/A
UNION CITY     SUNNY     84  73  70 SW7       30.09R HX  91
PARIS          SUNNY     82  70  65 S6        30.12R
LEXINGTON      PTSUNNY   81  70  69 S7        30.13R
$$

TNZ008-025-027-028-033-062-065-066-291700-
NORTH MIDDLE TENNESSEE

CITY           SKY/WX    TMP DP  RH WIND       PRES   REMARKS
NASHVILLE      PTSUNNY   84  68  58 S10       30.16R
CLARKSVILLE    MOSUNNY   83  69  62 S8        30.13R
COOKEVILLE     MOSUNNY   82  72  69 S9        30.19S
CROSSVILLE     MOSUNNY   79  66  64 S12       30.25F
$$

TNZ061-075-076-078-094-096-097-291700-
SOUTH MIDDLE TENNESSEE

CITY           SKY/WX    TMP DP  RH WIND       PRES   REMARKS
FAYETTEVILLE     N/A     79  68  69 CALM      30.18S
TULLAHOMA      MOSUNNY   81  66  61 SE9       30.20S
WINCHESTER     PTSUNNY   81  70  69 S13       30.20R
COLUMBIA       PTSUNNY   82  73  74 S7        30.15R
SHELBYVILLE    CLOUDY    82  70  65 S9        30.18S
$$

TNZ017-018-042-046-047-291700-
NORTHEAST TENNESSEE

CITY           SKY/WX    TMP DP  RH WIND       PRES   REMARKS
TRI CITIES     PTSUNNY   77  60  55 CALM      30.26S
ELIZABETHTON   SUNNY     75  61  60 SE3       30.26F
$$

TNZ012-013-036-069-073-074-291700-
CENTRAL EAST TENNESSEE

CITY           SKY/WX    TMP DP  RH WIND       PRES   REMARKS
KNOXVILLE      PTSUNNY   80  68  66 CALM      30.22S
OAK RIDGE      MOSUNNY   82  65  56 VRB5      30.23S
GATLINBURG     SUNNY     82  61  47 CALM      30.21F
$$

TNZ083-085-099-291700-
SOUTHEAST TENNESSEE

CITY           SKY/WX    TMP DP  RH WIND       PRES   REMARKS
CHATTANOOGA    PTSUNNY   81  69  67 SE14      30.20S
$$

SKY/WX REPORTED AS FAIR MEANS FEW OR NO CLOUDS BELOW
12 THOUSAND FEET.



USA.gov is the U.S. government's official web portal to all federal, state and local government web resources and services.